Left ArrowRight Arrow

38.83388, -104.82136

Hourly Observations for June 16, 2024

Temp ( °F °C ) Dew Point ( °F °C ) Humidity (%) Winds ( mph kmh ) Pressure ( in mb ) Visibility ( mi km ) Precip ( " mm )
12:55 am 00:55 Clear 75 24.1 35 1.7 23 23 W 8 13 29.41 996 10 16 0.00 0.00
1:55 am 01:55 Clear 69 20.8 36 2.1 29 29 Calm 29.41 996 10 16 0.00 0.00
2:55 am 02:55 Clear 67 19.5 36 2.4 32 32 Calm 29.40 996 10 16 0.00 0.00
3:55 am 03:55 Clear 67 19.7 33 0.7 28 28 NNW 5 7 29.40 996 10 16 0.00 0.00
4:55 am 04:55 Clear 65 18.1 35 1.6 33 33 Calm 29.41 996 10 16 0.00 0.00
5:55 am 05:55 Sunny 64 17.8 37 2.5 36 36 NNW 3 6 29.42 996 10 16 0.00 0.00
6:55 am 06:55 Sunny 68 20.1 41 4.9 37 37 Calm 29.41 996 10 16 0.00 0.00
7:55 am 07:55 Sunny 72 22.3 46 7.7 39 39 SE 6 9 29.39 995 10 16 0.00 0.00
8:55 am 08:55 Sunny 79 26.3 37 2.9 22 22 SSE 12 19 29.39 995 10 16 0.00 0.00
9:55 am 09:55 Sunny 81 27.2 44 6.6 27 27 SSE 14 22 29.37 995 9 14 0.00 0.00
10:21 am 10:21 Sunny 82 28 41 5 23 23 SE 18 30 29.36 994 10 16 0.00 0.00
10:55 am 10:55 Sunny 85 29.3 34 0.9 16 16 E 6 9 29.36 994 10 16 0.00 0.00
10:59 am 10:59 Sunny 86 30 34 1 15 15 SSE 15 24 29.35 994 10 16 0.00 0.00
11:55 am 11:55 Sunny 86 30.2 30 -1.3 13 13 SE 17 28 29.34 993 10 16 0.00 0.00
12:05 pm 12:05 Sunny 88 31 30 -1 13 13 S 20 31 29.33 993 10 16 0.00 0.00
12:30 pm 12:30 Sunny 86 30 28 -2 12 12 SSE 15 24 29.32 993 10 16 0.00 0.00
12:55 pm 12:55 Sunny 87 30.8 31 -0.8 13 13 SE 21 33 29.29 992 10 16 0.00 0.00
1:04 pm 13:04 Sunny 88 31 30 -1 13 13 S 18 30 29.31 992 10 16 0.00 0.00
1:44 pm 13:44 Sunny 88 31 30 -1 13 13 SE 16 26 29.29 992 10 16 0.00 0.00
1:55 pm 13:55 Partly Cloudy 88 30.9 33 0.3 14 14 SSE 23 37 29.29 992 10 16 0.00 0.00
2:18 pm 14:18 Partly Cloudy 88 31 30 -1 13 13 S 17 28 29.29 992 10 16 0.00 0.00
2:55 pm 14:55 Mostly Cloudy 87 30.8 29 -1.9 12 12 SE 18 30 29.27 991 9 14 0.00 0.00
3:33 pm 15:33 Mostly Cloudy 88 31 27 -3 11 11 S 13 20 29.26 991 10 16 0.00 0.00
3:55 pm 15:55 Sunny 87 30.7 26 -3.2 11 11 SSE 17 28 29.25 991 10 16 0.00 0.00
4:18 pm 16:18 Sunny 88 31 27 -3 11 11 SE 14 22 29.25 991 10 16 0.00 0.00
4:33 pm 16:33 Sunny 88 31 28 -2 12 12 S 17 28 29.25 991 10 16 0.00 0.00
4:55 pm 16:55 Sunny 87 30.7 28 -2 12 12 SE 15 24 29.24 990 10 16 0.00 0.00
4:58 pm 16:58 Sunny 88 31 28 -2 12 12 S 15 24 29.25 991 10 16 0.00 0.00
5:55 pm 17:55 Mostly Sunny 87 30.4 28 -2.2 12 12 SE 8 13 29.24 990 10 16 0.00 0.00
6:55 pm 18:55 Mostly Cloudy 84 29 30 -1.2 14 14 SSE 10 17 29.22 990 10 16 0.00 0.00
7:55 pm 19:55 Sunny 83 28.3 25 -3.8 12 12 S 3 6 29.23 990 10 16 0.00 0.00
8:55 pm 20:55 Clear 80 26.8 27 -2.9 14 14 NW 7 11 29.23 990 10 16 0.00 0.00
9:55 pm 21:55 Clear 74 23.6 44 6.8 34 34 Calm 29.24 990 10 16 0.00 0.00
10:55 pm 22:55 Clear 73 22.9 48 8.9 41 41 NNW 14 22 29.23 990 10 16 0.00 0.00
11:55 pm 23:55 Clear 73 22.6 43 5.9 34 34 NNW 12 19 29.23 990 10 16 0.00 0.00

Powered by Vaisala Xweather